Regional Weather Roundup
Issued by NWS Cleveland, OH

Home | Current Version | Previous Version | Graphics & Text | Print | Product List | Glossary On
Versions: 1 2 3 4 5 6 7 8 9 10 11 12 13 14 15 16 17 18 19 20 21 22 23 24 25 26 27 28 29 30 31 32 33 34 35 36 37 38 39 40 41 42 43 44 45 46 47 48 49 50
000
ASUS41 KCLE 180910
RWRCLE
OHIO REGIONAL WEATHER ROUNDUP
NATIONAL WEATHER SERVICE CLEVELAND, OH
400 AM EST THU DEC 18 2014

NOTE: "FAIR" INDICATES FEW OR NO CLOUDS BELOW 12,000 FEET WITH NO
SIGNIFICANT WEATHER AND/OR OBSTRUCTIONS TO VISIBILITY.

OHZ001>008-015>018-024>027-034-035-043-044-181000-
   NORTHWEST OHIO

CITY           SKY/WX    TMP DP  RH WIND       PRES   REMARKS
DEFIANCE       NOT AVBL
FINDLAY        CLOUDY    29  21  72 W10       30.23R WCI  20
TOLEDO EXPRESS CLOUDY    29  21  72 W8        30.22S WCI  21
TOLEDO EXEC    CLOUDY    30  20  66 W12       30.23S WCI  20
LIMA           CLOUDY    30  20  66 W10       30.24R WCI  21
$$

OHZ009>014-019>023-028>033-038-089-181000-
   NORTHEAST OHIO

CITY           SKY/WX    TMP DP  RH WIND       PRES   REMARKS
CLE-HOPKINS    CLOUDY    29  20  69 W15       30.21S WCI  18
CLE-LAKEFRONT  CLOUDY    32  24  72 W20       30.18F WCI  20
CUY CO. ARPT   NOT AVBL
LORAIN-ELYRIA  CLOUDY    28  21  75 W12       30.20F WCI  18
ASHTABULA      CLOUDY    29  22  75 W12       30.15S WCI  19
AKRON-CANTON   CLOUDY    28  20  71 NW8       30.18R WCI  20
WOOSTER        CLOUDY    27  21  78 NW10      30.20S WCI  17
MANSFIELD      CLOUDY    26  21  81 W6        30.20R WCI  19
YOUNGSTOWN     FLURRIES  28  19  69 W10       30.15R WCI  19
$$

OHZ042-051>053-060>062-070>072-077>081-181000-
  SOUTHWEST OHIO

CITY           SKY/WX    TMP DP  RH WIND       PRES   REMARKS
CINC-COVINGTON CLOUDY    26  18  71 N5        30.27F WCI  20
CINC-LUNKEN    CLOUDY    26  19  74 N6        30.32S WCI  19
HAMILTON       CLOUDY    27  20  75 CALM      30.30F
DAYTON         CLOUDY    27  18  69 W7        30.27R WCI  19
WRIGHT-PAT AFB CLOUDY    27  18  70 W6        30.27S WCI  20
DAYTON GENERAL CLOUDY    26  20  77 W3        30.26S
WILMINGTON     CLOUDY    25  18  74 W6        30.25F WCI  18
$$

OHZ036-037-039>041-045>050-054>059-063>069-073>076-082>088-181000-
  CENTRAL AND SOUTHEAST OHIO

CITY           SKY/WX    TMP DP  RH WIND       PRES   REMARKS
COLUMBUS       CLOUDY    27  18  69 NW8       30.24S WCI  19
OSU AIRPORT    CLOUDY    27  18  69 NW10      30.24S WCI  17
BOLTON FIELD   CLOUDY    27  19  73 MISG      30.25F
RICKENBACK AFB CLOUDY    28  19  69 W7        30.26S WCI  20
NEWARK         CLOUDY    28  19  69 NW6       30.24S WCI  22
MARION         CLOUDY    27  20  75 NW9       30.23S WCI  18
LANCASTER      CLOUDY    28  20  71 W5        30.25S WCI  23
ZANESVILLE     CLOUDY    27  18  69 NW8       30.23S WCI  19
NEW PHILLY     CLOUDY    29  19  66 W9        30.22S WCI  20
$$



USA.gov is the U.S. government's official web portal to all federal, state and local government web resources and services.